This is the latest recevied weather packets stored in our database for station/object KC4JES. If no packets are shown the sender has not sent any weather packets the latest 10 day(s).
| Time | Temp. | Humidity | Pressure | Rain* | Wind** | Luminosity | Snow |
|---|---|---|---|---|---|---|---|
| 1777899933 | 20.56° C | 64% | 1018.9 hPa | 0 mm | - | 48 W/m² | - |
| 1777899631 | 20° C | 66% | 1019.2 hPa | 0 mm | - | 44 W/m² | - |
| 1777899328 | 20° C | 75% | 1019.1 hPa | 0 mm | - | 37 W/m² | - |
| 1777899026 | 18.89° C | 76% | 1019.1 hPa | 0 mm | - | 44 W/m² | - |
| 1777898722 | 18.89° C | 86% | 1019.1 hPa | 0 mm | - | 42 W/m² | - |
| 1777898420 | 17.78° C | 87% | 1018.9 hPa | 0 mm | - | 39 W/m² | - |
| 1777898118 | 17.22° C | 89% | 1018.9 hPa | 0 mm | - | 33 W/m² | - |
| 1777897815 | 16.67° C | 94% | 1018.8 hPa | 0 mm | - | 35 W/m² | - |
| 1777897510 | 16.11° C | 96% | 1019.1 hPa | 0 mm | - | 34 W/m² | - |
| 1777897206 | 16.11° C | 98% | 1018.7 hPa | 0 mm | - | 32 W/m² | - |
| 1777896901 | 15.56° C | 98% | 1018.8 hPa | 0 mm | - | 28 W/m² | - |
| 1777896600 | 15° C | 98% | 1018.6 hPa | 0 mm | - | 29 W/m² | - |
| 1777896295 | 15° C | 98% | 1018.7 hPa | 0 mm | - | 27 W/m² | - |
| 1777895995 | 14.44° C | 98% | 1018.7 hPa | 0 mm | - | 25 W/m² | - |
| 1777895692 | 14.44° C | 98% | 1018.9 hPa | 0 mm | - | 23 W/m² | - |
| 1777895389 | 13.89° C | 98% | 1018.7 hPa | 0 mm | - | 22 W/m² | - |
| 1777895087 | 13.89° C | 98% | 1018.7 hPa | 0 mm | - | 21 W/m² | - |
| 1777894784 | 13.89° C | 98% | 1018.6 hPa | 0 mm | - | 20 W/m² | - |
| 1777894480 | 13.89° C | 98% | 1018.5 hPa | 0 mm | - | 19 W/m² | - |
| 1777894178 | 13.33° C | 97% | 1018.5 hPa | 0 mm | - | 18 W/m² | - |
| 1777893875 | 13.33° C | 97% | 1018.6 hPa | 0 mm | - | 16 W/m² | - |
| 1777893571 | 13.33° C | 97% | 1018.4 hPa | 0 mm | - | 15 W/m² | - |
| 1777893267 | 13.33° C | 97% | 1018.4 hPa | 0 mm | - | 13 W/m² | - |
| 1777892964 | 13.33° C | 97% | 1018.4 hPa | 0 mm | - | 11 W/m² | - |
| 1777892661 | 13.33° C | 97% | 1018.2 hPa | 0 mm | - | 9 W/m² | - |
* Rain latest hour (hover to see other rain measurements)
** Current wind speed in m/s (hover to see current wind gust speed)